Theta_e
338 345 353 352 351 350 348 347 347 345 344 343 341 339 339 340 338 335 334 334 335 334 334 334 333 333 332 332 332 334 335 335 338 342 347 350 354 352 355 357 357 353 358
339 345 353 352 351 351 349 349 348 347 346 344 342 341 339 340 337 336 336 336 335 335 334 334 334 335 335 334 333 336 337 337 336 337 340 344 347 355 353 355 357 356 359
337 343 348 352 352 351 350 350 349 348 347 346 344 342 340 339 337 337 337 337 336 335 335 334 334 335 336 337 337 336 337 340 340 339 336 332 335 347 354 354 358 358 357
337 341 344 352 352 351 350 350 349 348 347 346 344 342 340 340 338 338 338 338 338 338 338 337 336 336 337 338 340 340 338 338 340 343 337 332 328 341 356 354 354 355 357
337 340 342 352 351 351 351 350 349 349 348 346 344 344 342 341 341 342 340 340 340 340 341 340 340 339 339 339 341 342 341 341 340 339 337 333 325 331 347 355 354 354 353
340 339 346 352 352 352 352 351 350 349 349 347 345 345 344 343 343 345 343 342 342 342 343 343 342 342 342 342 345 344 343 343 343 335 332 334 336 338 358 355 354 354 353
341 337 346 351 352 353 353 352 351 350 349 349 348 346 346 347 347 346 344 342 343 344 344 344 344 345 343 343 343 343 342 341 338 336 335 334 333 347 355 353 350 352 352
341 338 345 351 352 352 353 352 351 350 350 350 350 349 349 348 348 348 345 344 345 346 345 343 343 342 343 342 342 345 342 341 337 332 334 334 337 353 355 354 351 350 351
341 340 344 345 348 353 352 352 351 350 350 349 349 349 349 349 349 349 348 347 347 348 347 345 342 340 342 342 342 344 341 341 335 333 333 332 344 351 352 353 353 352 351
336 344 343 343 343 345 347 353 352 351 350 350 350 350 349 349 350 350 348 349 349 348 346 345 341 340 341 342 343 343 341 342 335 334 333 332 345 348 349 349 350 350 350
328 344 344 343 343 343 344 349 352 353 352 351 350 350 347 342 343 344 347 347 349 349 347 345 343 342 341 339 339 340 341 333 333 333 333 337 348 346 345 346 349 350 349
316 338 344 343 343 342 344 343 346 346 346 346 345 344 343 340 336 340 343 349 349 349 346 344 344 341 338 330 329 336 333 332 332 330 331 341 346 345 344 344 347 349 349
317 319 343 343 343 342 341 342 345 344 343 344 342 339 341 339 337 339 334 340 342 346 338 340 337 335 331 329 327 324 331 332 332 330 333 342 346 346 344 343 343 348 349
315 317 322 341 344 343 341 340 343 342 341 341 341 337 338 338 338 335 331 333 333 335 332 330 332 331 330 331 330 328 333 331 331 330 329 343 343 345 345 343 342 346 349
316 318 320 334 342 342 337 340 342 342 341 339 338 338 339 339 335 333 330 332 332 331 332 331 331 332 330 330 330 329 330 331 331 332 334 343 346 343 345 344 343 343 349
322 319 321 331 338 339 337 340 342 342 341 339 339 339 341 338 334 333 334 332 331 331 330 330 329 328 327 328 328 329 327 329 331 331 332 334 342 342 344 344 343 342 347
320 322 325 335 338 339 337 340 341 342 341 340 339 341 340 335 332 335 332 331 330 331 331 329 328 329 327 328 327 327 330 331 331 331 331 334 335 342 344 343 343 343 346
318 322 329 342 340 341 338 340 342 341 338 335 333 338 338 335 334 333 331 330 331 330 330 328 328 326 326 325 323 325 329 327 330 329 329 328 331 332 339 342 344 345 346
320 323 330 339 341 341 341 340 340 339 334 333 333 333 337 337 337 333 332 330 331 330 328 328 327 326 324 324 324 324 325 325 327 330 328 330 329 332 334 339 342 344 345
329 332 333 341 341 342 342 341 339 336 332 332 333 332 335 335 337 334 332 331 331 329 326 327 325 326 325 323 326 325 324 325 326 326 327 330 329 329 333 333 336 338 345
330 333 336 340 340 343 341 337 333 331 330 329 331 332 335 336 336 333 330 330 330 326 326 327 325 325 323 323 320 320 320 323 324 324 326 325 327 328 331 333 334 335 340
330 333 334 337 339 338 338 334 332 331 329 329 330 331 333 334 332 332 330 330 327 327 326 325 324 322 321 324 319 315 311 315 320 324 325 326 326 329 331 332 333 334 336
330 330 332 336 337 336 336 334 332 331 330 328 328 330 332 333 333 331 331 329 327 328 325 324 323 321 318 320 321 316 310 308 313 320 323 323 325 324 327 330 333 333 335
329 331 333 336 335 335 333 331 329 325 323 325 325 329 331 332 331 332 333 330 328 327 324 323 325 322 321 318 319 323 319 316 310 310 318 320 323 325 325 328 330 333 333
330 331 334 334 333 334 331 331 329 326 327 326 326 328 328 329 331 333 332 329 327 326 324 324 324 323 322 319 318 317 318 318 318 313 309 315 320 322 324 327 328 334 335
331 332 333 332 331 331 332 331 327 325 325 325 324 325 325 327 328 331 331 328 327 326 325 326 324 322 323 322 322 320 317 317 316 313 311 311 313 318 326 329 329 332 331
Wind_Speed
6 14 19 18 17 18 18 18 17 16 16 15 14 13 12 11 10 10 10 9 8 7 5 5 4 3 2 2 2 3 4 5 8 9 8 9 9 2 8 10 10 9 11
16 14 19 19 18 18 18 17 17 16 15 15 14 13 13 12 11 11 9 8 7 6 5 4 2 1 0 1 2 3 4 5 6 9 10 10 10 7 4 6 7 11 12
17 15 16 19 19 19 18 17 17 17 16 16 15 13 12 11 11 10 9 9 7 5 4 3 3 2 2 3 3 3 4 5 6 7 9 5 7 10 7 8 7 12 11
18 15 14 20 20 19 19 18 17 17 17 15 15 14 13 12 11 9 8 8 7 7 6 5 5 4 5 5 5 5 4 6 5 7 4 5 7 11 10 9 9 11 11
15 13 13 20 20 19 19 18 17 16 15 15 15 14 13 12 10 9 8 8 7 7 7 7 6 6 7 7 8 7 5 6 6 7 6 6 6 9 12 12 8 10 11
15 15 15 19 19 19 19 18 17 16 15 15 15 14 13 12 11 10 10 9 8 8 8 8 8 8 8 8 6 8 7 5 7 5 6 7 7 10 1 10 7 7 11
16 16 18 22 19 18 18 18 18 18 17 17 16 16 15 13 12 12 12 10 10 10 10 9 9 8 8 9 7 6 7 7 4 5 6 5 6 11 10 9 8 6 9
19 19 19 28 25 21 19 19 19 19 19 19 18 18 17 15 14 13 13 12 12 12 12 10 8 6 4 6 8 7 7 8 7 5 6 4 7 9 12 12 9 7 7
18 17 16 18 23 27 25 23 20 19 19 19 19 19 18 17 15 14 14 14 13 13 12 11 10 8 7 7 8 8 9 11 6 4 7 3 11 13 14 13 12 10 9
15 15 15 16 17 17 17 25 25 22 21 19 19 18 18 17 16 15 15 14 14 14 14 12 11 10 9 9 9 10 12 13 5 6 5 3 8 7 11 11 10 9 9
6 14 14 15 16 17 16 17 22 25 23 21 18 18 13 6 8 11 14 17 15 16 15 14 13 11 11 11 12 13 15 3 5 4 4 8 9 9 11 9 9 9 8
6 14 13 15 16 15 13 14 14 13 12 12 11 10 7 6 6 10 12 19 18 19 16 15 14 13 12 4 4 13 4 5 5 5 5 13 13 12 12 10 9 9 10
6 4 16 14 14 16 14 11 8 8 8 8 11 9 8 7 7 6 3 3 7 13 6 9 7 6 6 5 4 4 7 7 5 5 8 15 13 15 13 14 12 10 11
7 5 8 16 15 16 10 10 11 9 9 8 10 11 8 6 7 5 3 5 5 4 6 4 4 6 6 7 6 6 8 7 5 4 6 15 18 19 14 13 13 12 12
7 6 4 13 16 15 13 10 10 11 10 10 10 11 10 8 5 4 4 4 5 5 5 5 5 5 5 6 6 6 5 7 7 3 3 14 15 17 14 15 13 13 14
7 6 6 10 13 15 14 13 11 10 10 9 9 11 11 7 5 4 4 4 5 5 4 5 4 4 4 3 4 5 5 5 6 5 2 3 11 12 12 13 13 14 15
7 7 8 10 11 16 14 9 9 9 9 10 9 11 12 8 6 5 4 3 4 4 5 3 3 3 3 3 4 5 4 5 5 5 4 3 5 12 13 14 15 14 14
6 8 8 9 11 9 9 6 6 6 5 6 5 7 10 8 8 5 4 3 3 3 4 3 3 3 4 3 3 4 3 2 3 4 4 4 4 5 10 14 14 14 15
9 7 7 9 12 10 8 6 6 7 5 5 5 5 8 9 7 6 4 4 4 4 3 3 4 3 3 3 4 3 3 2 3 3 6 5 6 5 5 11 15 14 14
7 8 8 8 10 9 6 6 4 5 4 5 4 6 8 6 7 6 5 5 5 4 3 3 5 4 3 4 3 3 3 3 3 4 4 3 4 5 5 6 7 8 14
7 8 8 11 8 9 7 5 4 5 3 2 4 7 8 6 7 6 5 4 5 4 5 5 4 5 4 4 3 1 2 4 4 4 4 4 5 5 6 5 5 5 6
8 8 9 8 8 6 5 4 4 4 3 4 4 5 7 7 7 6 5 5 5 4 4 5 4 2 3 4 3 2 1 3 3 5 3 4 6 4 3 5 7 8 7
9 9 9 8 8 7 7 5 4 4 3 3 2 2 4 6 6 5 6 5 4 3 4 5 5 6 4 3 4 5 1 4 2 1 4 3 3 1 2 3 6 6 7
8 9 8 9 9 7 8 5 4 4 3 3 4 3 4 6 6 5 4 4 4 4 4 4 4 4 4 4 1 4 3 3 2 1 2 2 3 3 4 3 4 5 7
10 8 9 9 8 6 7 7 5 5 2 3 4 7 4 3 4 5 6 5 4 4 3 6 5 5 4 3 3 2 3 1 2 3 3 2 2 0 3 3 4 5 6
10 10 9 9 6 7 7 7 7 5 6 4 4 4 3 2 1 4 5 5 4 4 5 4 4 6 5 4 4 3 3 3 4 3 2 2 3 0 3 3 3 4 7
Wind_Direction
159 160 161 158 155 146 147 146 143 139 139 139 138 136 133 131 128 124 122 123 124 120 121 114 109 107 81 354 336 331 332 328 329 333 339 336 331 256 172 145 147 129 131
142 161 163 162 160 153 155 152 148 145 145 147 146 145 143 143 144 142 142 138 139 136 132 131 145 134 158 251 296 311 308 315 319 319 322 321 315 287 225 174 167 141 141
144 160 166 167 165 162 160 157 155 154 155 157 154 150 152 153 153 156 160 158 162 166 167 173 198 232 244 262 258 268 280 301 308 309 306 312 297 292 237 201 163 153 152
148 160 167 172 170 168 164 163 163 163 163 162 157 157 162 165 163 169 182 177 183 194 199 210 219 229 244 256 263 256 273 288 296 304 303 283 284 297 240 223 182 164 161
145 158 170 175 173 173 169 169 170 169 168 165 165 166 172 173 171 183 196 193 208 219 226 229 230 241 244 249 253 257 252 271 296 288 283 269 274 282 280 194 194 181 174
150 158 170 180 178 177 174 173 174 172 171 174 173 176 182 181 184 193 209 211 218 230 240 249 247 246 247 253 258 261 245 260 278 285 275 276 275 268 122 158 172 185 183
156 166 168 179 185 182 180 178 178 177 177 183 181 184 190 190 193 199 212 217 227 236 241 251 262 269 272 252 263 248 257 261 262 273 277 283 303 221 152 159 181 181 197
163 171 172 176 180 182 184 185 184 185 184 188 186 189 193 193 198 201 212 218 227 235 239 245 252 255 251 243 250 235 227 241 266 277 280 282 278 184 147 153 161 178 191
172 166 173 179 182 180 180 184 187 190 193 195 192 194 194 196 198 203 211 217 226 229 229 235 236 234 237 238 233 231 230 234 232 255 274 291 307 210 179 166 157 159 179
158 171 172 174 178 182 184 186 183 189 196 199 201 201 199 198 200 205 212 215 219 219 221 224 230 232 231 231 233 236 237 238 235 242 260 257 254 158 152 150 159 161 167
172 170 177 175 178 180 185 189 188 186 192 196 201 205 203 201 205 213 218 218 212 215 215 217 224 230 233 234 235 237 237 218 219 232 255 244 198 167 153 148 154 165 173
285 179 177 176 181 174 181 184 186 195 192 190 193 194 189 197 214 217 219 228 208 213 209 216 223 231 243 220 233 239 229 210 221 222 236 246 228 186 167 156 159 179 176
239 157 181 182 176 176 184 178 183 185 187 184 185 181 187 202 224 218 215 228 197 210 196 214 225 222 216 231 219 220 211 206 219 231 237 250 225 199 189 171 170 178 183
265 254 156 184 175 183 179 180 177 179 185 188 191 181 183 200 212 215 193 188 165 181 187 202 207 210 208 228 240 239 191 200 210 213 223 237 238 211 192 181 176 178 183
239 239 225 164 179 182 179 177 178 183 184 184 179 188 192 196 189 215 236 162 181 164 186 206 204 203 209 229 243 236 199 207 219 204 227 255 207 189 192 185 186 185 186
209 234 228 179 183 173 179 176 181 180 179 181 180 189 182 175 178 187 223 202 173 178 180 181 178 185 202 206 268 262 240 231 206 181 122 236 167 176 191 196 197 196 190
200 219 212 180 167 175 176 164 172 179 175 180 185 170 168 163 170 176 199 213 199 182 161 165 207 186 230 230 245 278 236 226 201 182 177 201 209 188 201 205 203 200 195
201 206 192 167 169 162 160 148 144 162 149 154 138 145 153 158 165 182 202 214 200 170 152 162 193 227 226 227 227 260 251 241 250 223 203 186 194 190 215 210 202 205 200
223 197 183 163 162 155 144 142 139 139 124 132 128 128 154 164 166 170 189 214 170 150 166 188 215 189 206 222 231 221 238 224 244 202 226 197 194 197 199 212 199 207 209
140 144 148 152 141 135 128 121 106 105 128 132 138 152 169 164 173 176 197 204 167 160 210 199 210 211 180 201 225 228 242 242 252 239 250 227 215 213 188 196 184 201 210
104 109 131 138 148 139 146 130 124 137 137 106 142 162 159 172 177 180 186 181 165 193 218 205 207 191 214 192 123 297 296 257 253 252 244 241 257 218 188 190 180 175 202
133 126 114 117 131 118 122 118 127 134 148 166 175 190 170 163 164 161 164 169 186 202 220 215 195 162 193 187 152 105 301 325 269 242 242 230 224 221 168 202 178 186 181
139 143 136 129 128 121 133 116 98 83 64 72 94 158 158 145 155 155 171 180 209 198 210 208 182 175 187 226 180 152 160 225 158 272 217 194 210 166 257 166 194 195 172
148 135 125 123 124 125 136 110 131 139 137 168 170 141 145 151 170 160 175 178 188 193 206 208 186 179 147 186 193 238 219 159 153 16 334 271 245 196 225 231 207 184 178
131 126 116 118 122 124 137 134 123 110 129 137 115 116 121 115 136 179 183 186 196 194 204 186 190 193 183 159 176 164 241 302 157 144 188 235 347 224 230 225 186 163 118
120 113 121 126 130 128 113 128 128 124 88 92 105 126 151 161 158 203 186 174 191 186 200 212 197 185 189 189 191 194 186 175 205 168 139 140 165 346 102 87 113 119 131